Cologne/Bonn Airport

Airport
ICAO code: 
EDDK
IATA Code: 
CGN
Summary
ICAO Region: 
EUR
Territory: 
Location: 
Cologne,
Serving: 
Cologne and Bonn
Elevation: 
302 ft
Coordinates: 
Aerial View: 
50° 51' 54.002" N, 7° 8' 19.562" E
Metar
Observation
EDDK 260520Z 30009KT 9000 BKN013 02/M01 Q1032 NOSIG
Station
Koeln / Bonn
Date/Time
2022-01-26 05:20:00
Wind direction
300°
Wind speed
09 kts
Lowest cloud amount
broken clouds
Temperature
2°C
Dew point
-1°C
Humidity
80%
QNH
1032 hPa
Weather condition
n/a

Description

Cologne/Bonn Airport (German: Flughafen Köln/Bonn, also called Konrad-Adenauer-Flughafen or Flughafen Köln-Wahn) is an international airport located in the district of Porz in the city of Cologne, Germany, and is surrounded by the Wahner Heide nature reserve. The airport is centrally located in the Cologne/Bonn Region 14.8 km southeast of Cologne city centre and 16 km northeast of Bonn.

Climatology

Temperate Marine climate/Oceanic climate (Köppen climate classification Cfb) - Moderately cool summer and comparatively warm winter.

Runways

Designator Length Width Surface Rops
14R/32L 1863 45 ASP Yes/Yes
6/24 2459 45 CON Yes/Yes
14L/32R 3815 60 ASP Yes/Yes
Airport map: 
Aerial View: 

Accidents and Serious Incidents at or in the vicinity of EDDK

SKYbrary Partners:

Safety knowledge contributed by: